Preview of NWS' New Version of Forecast
This preview is not operational and should not be used for support decisions.

Regional Weather Roundup (RWR)

Issued by Gray - Portland, ME (GYX)

                            
000
ASUS41 KGYX 241310
RWRGYX
WEATHER ROUNDUP FOR MAINE AND NEW HAMPSHIRE
NATIONAL WEATHER SERVICE GRAY ME
900 AM EDT MON JUN 24 2019

MEZ002-005-006-010-012-015-018-020-021-024-026-027-029-241400-
MAINE
  
CITY           SKY/WX    TMP DP  RH WIND       PRES   REMARKS
PORTLAND       FAIR      72  44  36 N5        29.83S                  
SANFORD        FAIR      72  50  45 N5        29.85R                  
BAR HARBOR     FAIR      62  46  55 N12       29.83F                  
WISCASSET      FAIR      70  46  42 CALM      29.84S                  
ROCKLAND       FAIR      65  45  48 NE8       29.83R                  
FRYEBURG       FAIR      70  48  45 VRB5      29.85S                  
LEWISTONAUBURN FAIR      68  46  45 N3        29.84S                  
AUGUSTA        FAIR      67  49  52 NE7       29.84S                  
WATERVILLE     FAIR      65  44  46 NE5       29.82R                  
BANGOR         FAIR      64  44  48 NE10      29.84S                  
GREENVILLE       N/A     57  40  52 VRB7      29.84F                  
MILLINOCKET    FAIR      63  37  38 NW10      29.85F                  
HOULTON        FAIR      59  40  49 N14       29.81S                  
PRESQUE ISLE   FAIR      58  39  49 N15       29.84R                  
FRENCHVILLE    FAIR      58  37  45 NW14G24   29.82R                  
CARIBOU        FAIR      59  38  45 NW10      29.82R                  
$$

NHZ002-005-008-009-011-012-014-241400-
NEW HAMPSHIRE
  
CITY           SKY/WX    TMP DP  RH WIND       PRES   REMARKS
PORTSMOUTH     MOSUNNY   72  49  42 N3        29.83R                  
ROCHESTER      FAIR      73  52  47 NW6       29.84R                  
NASHUA         FAIR      74  54  49 NW9       29.86R                  
MANCHESTER     PTSUNNY   74  52  46 NW8       29.84R                  
CONCORD          N/A     70  53  54 NW8       29.86R                  
LACONIA        FAIR      72  53  51 VRB3      29.86S                  
PLYMOUTH       FAIR      68  51  53 NW7       29.87R                  
BERLIN         FAIR      67  46  47 N6        29.87F                  
WHITEFIELD     FAIR      65  44  46 CALM      29.88S                  
JAFFREY        FAIR      71  52  50 CALM      29.89R                  
KEENE          FAIR      68  56  65 CALM      29.90S                  
LEBANON        FAIR      68  53  58 CALM      29.88R                  
MT WASHINGTON  MOSUNNY   41  27  56 NW38G48     N/A                   
$$

VTZ005-007-008-241400-
VERMONT
  
CITY           SKY/WX    TMP DP  RH WIND       PRES   REMARKS
ST JOHNSBURY     N/A     63  50  62 MISG      29.87S                  
MONTPELIER     FAIR      66  49  54 VRB3      29.93R                  
BURLINGTON     FAIR      69  54  58 CALM      29.89R                  
$$

MAZ007-012-024-CTZ003-RIZ002-NYZ038-NYZ072-241400-
SOUTHERN NEW ENGLAND AND NY
  
CITY           SKY/WX    TMP DP  RH WIND       PRES   REMARKS
BOSTON         FAIR      78  53  41 NW8       29.84R                  
WORCESTER      FAIR      71  54  54 NW10      29.89R                  
NANTUCKET      FAIR      73  58  59 N12       29.84R                  
PROVIDENCE     PTSUNNY   77  58  51 NW9       29.86R                  
HARTFORD       PTSUNNY   75  54  47 E5        29.88R                  
ALBANY         FAIR      72  51  47 CALM      29.91S                  
NEW YORK CITY  PTSUNNY   76  54  46 NW3       29.89S                  
$$

ANZ081-ANZ082-ANZ150-NHZ014-MEZ023>029-241400-
COASTAL MARINE OBSERVATIONS
  
STATION/POSITION TIME  TEMP    WIND        PRES    WAVE
                       AIR SEA DIR/SP/G            HT/PER
                 (UTC) (F)     (DEG/KT/KT) (MB)    (FT/S)
ISLE OF SHOALS   1200   64     330/  9/ 10 1009.5R
JEFFREYS LEDGE   1238      59                N/A     1/ 9
$$

.............KEY..............
   WCI - WIND CHILL
   TC  - TEMPERATURE IN CELSIUS
   VSB - VISIBILITY IN MILES
   HX  - HEAT INDEX
   FAIR- INDICATES FEW OR NO CLOUDS BELOW 12,000 FT, WITH NO 
         SIGNIFICANT WEATHER AND/OR OBSTRUCTIONS TO VISIBILITY.